Flag for Spain

Past Weather in 41°28'29.1"N, 2°05'51.9"E, Spain — Yesterday and Last 2 Weeks

Currently: 57 °F. Sunny. (Weather station: Barcelona Airport, Spain). See more current weather

Past Weather in 41°28'29.1"N, 2°05'51.9"E — Graph

°F

41°28'29.1"N, 2°05'51.9"E Temperature Yesterday

Maximum temperature yesterday: 61 °F (at 2:30 pm)
Minimum temperature yesterday: 52 °F (at 11:30 pm)
Average temperature yesterday: 57 °F

High & Low Weather Summary for the Past Weeks

 TemperatureHumidityPressure
High64 °F (Feb 23, 2:00 pm)100% (Feb 13, 1:00 am)30.63 "Hg (Feb 13, 1:00 am)
Low45 °F (Feb 11, 6:30 am)47% (Feb 10, 11:30 pm)29.77 "Hg (Feb 10, 5:00 pm)
Average53 °F83%30.23 "Hg
* Reported Feb 10 5:00 pm — Feb 25 5:30 pm, 41°28'29.1"N, 2°05'51.9"E. Weather by CustomWeather, © 2021

Note: Actual official high and low records may vary slightly from our data, if they occured in-between our weather recording intervals... More about our weather records

41°28'29.1"N, 2°05'51.9"E Weather History for the Previous 24 Hours

Scroll right to see more
 ConditionsComfort  
Time TempWeatherWind HumidityBarometerVisibility
5:30 pm
Thu, Feb 25
57 °FSunny.14 mph82%30.39 "Hg10 mi
5:00 pm57 °FSunny.14 mph82%30.39 "Hg10 mi
4:00 pm59 °FPassing clouds.16 mph77%30.42 "HgN/A
3:30 pm59 °FPartly sunny.13 mph77%30.42 "HgN/A
2:30 pm59 °FScattered clouds.12 mph72%30.42 "HgN/A
2:00 pm59 °FScattered clouds.14 mph72%30.42 "HgN/A
1:30 pm61 °FPassing clouds.14 mph68%30.45 "HgN/A
1:00 pm59 °FPassing clouds.10 mph72%30.45 "HgN/A
12:30 pm59 °FPassing clouds.9 mph72%30.45 "HgN/A
12:00 pm59 °FPassing clouds.7 mph72%30.48 "HgN/A
11:30 am57 °FPassing clouds.6 mph77%30.48 "HgN/A
11:00 am59 °FPassing clouds.1 mph72%30.48 "HgN/A
10:30 am57 °FPassing clouds.2 mph72%30.48 "HgN/A
10:00 am55 °FPassing clouds.6 mph77%30.48 "HgN/A
9:30 am54 °FPassing clouds.7 mph77%30.48 "HgN/A
9:00 am52 °FPassing clouds.6 mph82%30.48 "HgN/A
8:30 am50 °FPassing clouds.8 mph88%30.45 "HgN/A
8:00 am50 °FScattered clouds.7 mph88%30.45 "HgN/A
7:30 am52 °FPassing clouds.8 mph82%30.45 "HgN/A
7:00 am52 °FPartly cloudy.8 mph82%30.45 "HgN/A
6:30 am52 °FPartly cloudy.9 mph88%30.45 "HgN/A
6:00 am52 °FPassing clouds.8 mph88%30.45 "HgN/A
5:30 am50 °FPassing clouds.9 mph94%30.45 "HgN/A
5:00 am52 °FPassing clouds.7 mph88%30.45 "HgN/A
4:00 am52 °FPassing clouds.5 mph94%30.45 "HgN/A
3:30 am52 °FPassing clouds.8 mph94%30.48 "HgN/A
3:00 am52 °FPassing clouds.7 mph94%30.48 "HgN/A
2:30 am52 °FPassing clouds.7 mph94%30.48 "HgN/A
1:30 am52 °FPassing clouds.7 mph88%30.51 "HgN/A
12:30 am50 °FPassing clouds.6 mph94%30.51 "HgN/A
12:00 am52 °FPassing clouds.5 mph88%30.51 "HgN/A
11:30 pm
Wed, Feb 24
52 °FPassing clouds.3 mph88%30.51 "HgN/A
11:00 pm54 °FPassing clouds.1 mph88%30.51 "HgN/A
10:30 pm54 °FPassing clouds.1 mph88%30.51 "HgN/A
10:00 pm55 °FPassing clouds.No wind88%30.51 "HgN/A
9:30 pm55 °FPassing clouds.No wind88%30.51 "HgN/A
9:00 pm55 °FPassing clouds.No wind88%30.51 "HgN/A
8:30 pm55 °FPassing clouds.No wind88%30.51 "HgN/A
8:00 pm55 °FPassing clouds.No wind88%30.48 "HgN/A
7:30 pm55 °FPassing clouds.2 mph88%30.48 "HgN/A
7:00 pm55 °FPassing clouds.7 mph88%30.48 "HgN/A
6:30 pm57 °FPassing clouds.3 mph82%30.48 "HgN/A
6:00 pm57 °FPassing clouds.7 mph82%30.48 "HgN/A
Weather by CustomWeather, © 2021

See weather overview